Location: La Brionne
(46.1728°N, 1.7849°E)
Time: 06:33:51
(UTC+00:00)

DNEPR-1 R/B - Pass Details

Date: 16 June 2021
Orbit: 588 x 1333 km, 64.6° (Epoch: 02 August)

Event Time Altitude Azimuth Distance (km) Brightness Sun altitude
Rises 22:43:14 0° 318° (NW) 2,831 8.1 -18.6°
Reaches altitude 10° 22:45:30 10° 313° (NW) 1,922 6.9 -18.7°
Maximum altitude 22:49:34 47° 239° (WSW) 810 4.0 -18.9°
Enters shadow 22:50:37 38° 199° (SSW) 936 4.0 -19.0°
